Time,TemperatureF,DewpointF,PressureIn,WindDirection,WindDirectionDegrees,WindSpeedMPH,WindSpeedGustMPH,Humidity,HourlyPrecipIn,Conditions,Clouds,dailyrainin,SoftwareType,DateUTC
2013-02-21 00:00:00,21.7,8.4,30.32,ENE,65,6.2,10.0,56,0.00,OVC,SKC,0.00,WeatherDisplay:10.37,2013-02-21 06:00:00,
2013-02-21 00:05:00,21.7,8.4,30.31,ENE,77,8.2,11.0,56,0.00,OVC,SKC,0.00,WeatherDisplay:10.37,2013-02-21 06:05:00,
2013-02-21 00:10:00,21.6,8.3,30.32,ENE,70,8.1,10.4,56,0.00,OVC,SKC,0.00,WeatherDisplay:10.37,2013-02-21 06:10:00,
2013-02-21 00:15:00,21.6,8.3,30.32,ENE,68,11.5,15.0,56,0.00,OVC,SKC,0.00,WeatherDisplay:10.37,2013-02-21 06:15:00,
2013-02-21 00:20:00,21.6,8.3,30.32,ENE,72,5.6,7.0,56,0.00,OVC,SKC,0.00,WeatherDisplay:10.37,2013-02-21 06:20:00,
2013-02-21 00:25:00,21.6,8.3,30.32,ESE,114,5.8,9.2,56,0.00,OVC,SKC,0.00,WeatherDisplay:10.37,2013-02-21 06:25:00,
2013-02-21 00:30:00,21.6,8.3,30.32,East,86,5.0,6.0,56,0.00,OVC,SKC,0.00,WeatherDisplay:10.37,2013-02-21 06:30:00,
2013-02-21 00:35:00,21.6,8.3,30.32,ENE,61,8.8,10.4,56,0.00,OVC,SKC,0.00,WeatherDisplay:10.37,2013-02-21 06:35:00,
2013-02-21 00:40:00,21.6,7.9,30.32,ESE,104,6.7,12.7,55,0.00,OVC,SKC,0.00,WeatherDisplay:10.37,2013-02-21 06:40:00,
2013-02-21 00:45:00,21.6,8.3,30.33,East,79,6.5,10.4,56,0.00,OVC,SKC,0.00,WeatherDisplay:10.37,2013-02-21 06:45:00,
2013-02-21 00:50:00,21.6,8.3,30.33,ESE,111,7.5,8.0,56,0.00,OVC,SKC,0.00,WeatherDisplay:10.37,2013-02-21 06:50:00,
2013-02-21 00:56:00,21.7,8.0,30.33,East,99,5.4,11.5,55,0.00,OVC,SKC,0.00,WeatherDisplay:10.37,2013-02-21 06:56:00,
2013-02-21 01:01:00,21.7,8.4,30.33,SE,127,5.8,7.0,56,0.00,OVC,SKC,0.00,WeatherDisplay:10.37,2013-02-21 07:01:00,
2013-02-21 01:06:00,21.6,8.3,30.33,East,98,7.0,11.5,56,0.00,OVC,SKC,0.00,WeatherDisplay:10.37,2013-02-21 07:06:00,
2013-02-21 01:11:00,21.6,8.3,30.33,East,89,9.3,11.5,56,0.00,OVC,SKC,0.00,WeatherDisplay:10.37,2013-02-21 07:11:00,
2013-02-21 01:16:00,21.6,8.3,30.33,SE,132,6.0,10.4,56,0.00,OVC,SKC,0.00,WeatherDisplay:10.37,2013-02-21 07:16:00,
2013-02-21 01:21:00,21.7,8.4,30.33,ESE,103,5.2,6.9,56,0.00,OVC,SKC,0.00,WeatherDisplay:10.37,2013-02-21 07:21:00,
2013-02-21 01:26:00,21.7,8.4,30.33,ESE,110,9.2,12.7,56,0.00,OVC,SKC,0.00,WeatherDisplay:10.37,2013-02-21 07:26:00,
2013-02-21 01:31:00,21.7,8.4,30.33,SE,131,4.4,6.0,56,0.00,OVC,SKC,0.00,WeatherDisplay:10.37,2013-02-21 07:31:00,
2013-02-21 01:36:00,21.7,8.4,30.33,East,97,5.1,6.9,56,0.00,OVC,SKC,0.00,WeatherDisplay:10.37,2013-02-21 07:36:00,
2013-02-21 01:41:00,21.7,8.4,30.32,East,79,6.0,8.1,56,0.00,OVC,SKC,0.00,WeatherDisplay:10.37,2013-02-21 07:41:00,
2013-02-21 01:46:00,21.7,8.8,30.32,ENE,69,4.9,8.1,57,0.00,OVC,SKC,0.00,WeatherDisplay:10.37,2013-02-21 07:46:00,
2013-02-21 01:51:00,21.7,8.8,30.32,East,99,5.2,8.0,57,0.00,OVC,SKC,0.00,WeatherDisplay:10.37,2013-02-21 07:51:00,
2013-02-21 01:56:00,21.7,8.8,30.31,East,89,5.7,8.1,57,0.00,OVC,SKC,0.00,WeatherDisplay:10.37,2013-02-21 07:56:00,
2013-02-21 02:01:00,21.7,8.8,30.31,ENE,57,6.2,8.1,57,0.00,OVC,SKC,0.00,WeatherDisplay:10.37,2013-02-21 08:01:00,
2013-02-21 02:06:00,21.6,8.7,30.31,ENE,65,7.2,11.5,57,0.00,BKN,SKC,0.00,WeatherDisplay:10.37,2013-02-21 08:06:00,
2013-02-21 02:11:00,21.6,8.7,30.30,ENE,68,8.2,10.4,57,0.00,BKN,SKC,0.00,WeatherDisplay:10.37,2013-02-21 08:11:00,
2013-02-21 02:16:00,21.5,9.0,30.28,ESE,111,4.9,6.9,58,0.00,BKN,SKC,0.00,WeatherDisplay:10.37,2013-02-21 08:16:00,
2013-02-21 02:21:00,21.4,8.9,30.27,ENE,59,6.8,10.0,58,0.00,BKN,SKC,0.00,WeatherDisplay:10.37,2013-02-21 08:21:00,
2013-02-21 02:26:00,21.3,8.8,30.27,ENE,72,3.8,6.9,58,0.00,BKN,SKC,0.00,WeatherDisplay:10.37,2013-02-21 08:26:00,
2013-02-21 02:31:00,21.2,8.7,30.29,East,86,5.9,9.2,58,0.00,BKN,SKC,0.00,WeatherDisplay:10.37,2013-02-21 08:31:00,
2013-02-21 02:36:00,21.2,9.1,30.29,ESE,103,4.8,9.0,59,0.00,BKN,SKC,0.00,WeatherDisplay:10.37,2013-02-21 08:36:00,
2013-02-21 02:41:00,21.3,9.2,30.28,ENE,68,6.2,9.2,59,0.00,BKN,SKC,0.00,WeatherDisplay:10.37,2013-02-21 08:41:00,
2013-02-21 02:46:00,21.4,9.3,30.27,ENE,59,4.6,6.0,59,0.00,SCT,SKC,0.00,WeatherDisplay:10.37,2013-02-21 08:46:00,
2013-02-21 02:51:00,21.3,9.2,30.26,NE,53,6.2,11.5,59,0.00,SCT,SKC,0.00,WeatherDisplay:10.37,2013-02-21 08:51:00,
2013-02-21 02:56:00,21.4,9.3,30.27,ESE,118,2.1,5.8,59,0.00,SCT,SKC,0.00,WeatherDisplay:10.37,2013-02-21 08:56:00,
2013-02-21 03:01:00,21.4,9.3,30.27,NE,53,6.2,6.9,59,0.00,SCT,SKC,0.00,WeatherDisplay:10.37,2013-02-21 09:01:00,
2013-02-21 03:06:00,21.4,9.3,30.26,ENE,70,6.0,10.0,59,0.00,BKN,SKC,0.00,WeatherDisplay:10.37,2013-02-21 09:06:00,
2013-02-21 03:11:00,21.5,9.7,30.25,ENE,67,5.2,9.2,60,0.00,BKN,SKC,0.00,WeatherDisplay:10.37,2013-02-21 09:11:00,
2013-02-21 03:16:00,21.5,9.4,30.24,NE,40,4.8,8.1,59,0.00,BKN,SKC,0.00,WeatherDisplay:10.37,2013-02-21 09:16:00,
2013-02-21 03:21:00,21.3,9.2,30.23,NE,46,5.9,10.4,59,0.00,BKN,SKC,0.00,WeatherDisplay:10.37,2013-02-21 09:21:00,
2013-02-21 03:26:00,21.3,9.6,30.23,NNE,26,4.2,8.1,60,0.00,OVC,SKC,0.00,WeatherDisplay:10.37,2013-02-21 09:26:00,
2013-02-21 03:31:00,21.2,9.5,30.23,East,79,7.8,11.5,60,0.00,OVC,SKC,0.00,WeatherDisplay:10.37,2013-02-21 09:31:00,
2013-02-21 03:36:00,21.2,9.5,30.22,ENE,57,9.2,12.7,60,0.00,OVC,SKC,0.00,WeatherDisplay:10.37,2013-02-21 09:36:00,
2013-02-21 03:41:00,21.2,9.5,30.23,NE,56,9.7,16.1,60,0.00,OVC,SKC,0.00,WeatherDisplay:10.37,2013-02-21 09:41:00,
2013-02-21 03:46:00,21.2,9.8,30.22,ENE,61,4.3,9.2,61,0.00,OVC,SKC,0.00,WeatherDisplay:10.37,2013-02-21 09:46:00,
2013-02-21 03:51:00,21.2,9.8,30.24,East,88,8.5,12.0,61,0.00,OVC,SKC,0.00,WeatherDisplay:10.37,2013-02-21 09:51:00,
2013-02-21 03:56:00,21.2,9.8,30.25,ENE,60,9.0,11.5,61,0.00,OVC,SKC,0.00,WeatherDisplay:10.37,2013-02-21 09:56:00,
2013-02-21 04:01:00,21.2,9.8,30.24,ENE,57,6.6,8.1,61,0.00,OVC,SKC,0.00,WeatherDisplay:10.37,2013-02-21 10:01:00,
2013-02-21 04:06:00,21.2,9.8,30.25,East,88,7.3,10.4,61,0.00,OVC,SKC,0.00,WeatherDisplay:10.37,2013-02-21 10:06:00,
2013-02-21 04:11:00,21.2,9.8,30.23,ENE,72,8.1,15.0,61,0.00,OVC,SKC,0.00,WeatherDisplay:10.37,2013-02-21 10:11:00,
2013-02-21 04:16:00,21.2,9.8,30.23,East,91,5.6,11.5,61,0.00,OVC,SKC,0.00,WeatherDisplay:10.37,2013-02-21 10:16:00,
2013-02-21 04:21:00,21.3,9.9,30.24,East,91,6.6,10.4,61,0.00,OVC,SKC,0.00,WeatherDisplay:10.37,2013-02-21 10:21:00,
2013-02-21 04:26:00,21.2,9.8,30.23,NE,54,9.6,13.8,61,0.00,OVC,SKC,0.00,WeatherDisplay:10.37,2013-02-21 10:26:00,
2013-02-21 04:31:00,21.1,9.7,30.21,ENE,77,6.6,12.7,61,0.00,OVC,SKC,0.00,WeatherDisplay:10.37,2013-02-21 10:31:00,
2013-02-21 04:36:00,21.1,9.7,30.22,East,82,8.4,11.5,61,0.00,OVC,SKC,0.00,WeatherDisplay:10.37,2013-02-21 10:36:00,
2013-02-21 04:41:00,21.1,10.1,30.22,ESE,117,8.8,10.4,62,0.00,OVC,SKC,0.00,WeatherDisplay:10.37,2013-02-21 10:41:00,
2013-02-21 04:46:00,21.1,9.7,30.20,ENE,61,6.7,15.0,61,0.00,OVC,SKC,0.00,WeatherDisplay:10.37,2013-02-21 10:46:00,
2013-02-21 04:51:00,21.1,10.1,30.20,NE,54,10.2,13.8,62,0.00,OVC,SKC,0.00,WeatherDisplay:10.37,2013-02-21 10:51:00,
2013-02-21 04:56:00,21.1,10.1,30.20,NE,39,6.8,17.3,62,0.00,OVC,SKC,0.00,WeatherDisplay:10.37,2013-02-21 10:56:00,
2013-02-21 05:01:00,21.1,10.1,30.20,ENE,60,7.9,10.4,62,0.00,OVC,SKC,0.00,WeatherDisplay:10.37,2013-02-21 11:01:00,
2013-02-21 05:06:00,21.1,10.1,30.19,ENE,66,8.0,11.5,62,0.00,OVC,SKC,0.00,WeatherDisplay:10.37,2013-02-21 11:06:00,
2013-02-21 05:11:00,21.1,10.1,30.18,NE,56,7.2,15.0,62,0.00,OVC,SKC,0.00,WeatherDisplay:10.37,2013-02-21 11:11:00,
2013-02-21 05:16:00,21.1,10.1,30.18,East,97,7.6,17.3,62,0.00,OVC,SKC,0.00,WeatherDisplay:10.37,2013-02-21 11:16:00,
2013-02-21 05:21:00,21.1,10.1,30.19,NE,38,8.3,15.0,62,0.00,OVC,SKC,0.00,WeatherDisplay:10.37,2013-02-21 11:21:00,
2013-02-21 05:26:00,21.2,10.2,30.20,ESE,115,9.3,10.4,62,0.00,OVC,SKC,0.00,WeatherDisplay:10.37,2013-02-21 11:26:00,
2013-02-21 05:31:00,21.3,9.9,30.20,SE,124,8.5,12.7,61,0.00,OVC,SKC,0.00,WeatherDisplay:10.37,2013-02-21 11:31:00,
2013-02-21 05:36:00,21.3,10.3,30.20,ESE,120,5.5,10.4,62,0.00,BKN,SKC,0.00,WeatherDisplay:10.37,2013-02-21 11:36:00,
2013-02-21 05:41:00,21.4,10.0,30.20,ENE,78,11.2,15.0,61,0.00,OVC,SKC,0.00,WeatherDisplay:10.37,2013-02-21 11:41:00,
2013-02-21 05:46:00,21.4,10.0,30.21,ENE,73,10.7,16.1,61,0.00,OVC,SKC,0.00,WeatherDisplay:10.37,2013-02-21 11:46:00,
2013-02-21 05:51:00,21.4,10.0,30.22,East,93,9.1,15.0,61,0.00,OVC,SKC,0.00,WeatherDisplay:10.37,2013-02-21 11:51:00,
2013-02-21 05:56:00,21.4,10.0,30.21,ENE,62,9.8,13.8,61,0.00,OVC,SKC,0.00,WeatherDisplay:10.37,2013-02-21 11:56:00,
2013-02-21 06:01:00,21.4,10.4,30.21,East,84,6.6,9.2,62,0.00,OVC,SKC,0.00,WeatherDisplay:10.37,2013-02-21 12:01:00,
2013-02-21 06:07:00,21.4,10.4,30.21,ENE,75,10.8,16.1,62,0.00,OVC,SKC,0.00,WeatherDisplay:10.37,2013-02-21 12:07:00,
2013-02-21 06:12:00,21.4,10.4,30.21,ENE,73,12.6,17.3,62,0.00,OVC,SKC,0.00,WeatherDisplay:10.37,2013-02-21 12:12:00,
2013-02-21 06:17:00,21.4,10.4,30.21,East,96,11.0,17.3,62,0.00,OVC,SKC,0.00,WeatherDisplay:10.37,2013-02-21 12:17:00,
2013-02-21 06:22:00,21.3,10.3,30.20,East,86,4.7,11.5,62,0.00,OVC,SKC,0.00,WeatherDisplay:10.37,2013-02-21 12:22:00,
2013-02-21 06:27:00,21.3,10.7,30.20,East,79,5.2,5.8,63,0.00,OVC,SKC,0.00,WeatherDisplay:10.37,2013-02-21 12:27:00,
2013-02-21 06:32:00,21.3,10.7,30.20,SE,146,4.3,5.8,63,0.00,OVC,SKC,0.00,WeatherDisplay:10.37,2013-02-21 12:32:00,
2013-02-21 06:37:00,21.3,10.7,30.20,ENE,65,6.8,11.5,63,0.00,OVC,SKC,0.00,WeatherDisplay:10.37,2013-02-21 12:37:00,
2013-02-21 06:42:00,21.2,10.6,30.20,East,90,6.5,11.5,63,0.00,OVC,SKC,0.00,WeatherDisplay:10.37,2013-02-21 12:42:00,
2013-02-21 06:47:00,21.3,10.7,30.20,East,94,9.0,12.7,63,0.00,OVC,SKC,0.00,WeatherDisplay:10.37,2013-02-21 12:47:00,
2013-02-21 06:52:00,21.3,11.0,30.19,NE,41,7.5,11.5,64,0.00,OVC,SKC,0.00,WeatherDisplay:10.37,2013-02-21 12:52:00,
2013-02-21 06:57:00,21.3,11.0,30.19,NE,54,9.4,11.5,64,0.00,OVC,SKC,0.00,WeatherDisplay:10.37,2013-02-21 12:57:00,
2013-02-21 07:02:00,21.2,10.9,30.19,ENE,63,7.7,16.0,64,0.00,OVC,SKC,0.00,WeatherDisplay:10.37,2013-02-21 13:02:00,
2013-02-21 07:07:00,21.2,10.9,30.19,East,82,8.3,13.8,64,0.00,OVC,SKC,0.00,WeatherDisplay:10.37,2013-02-21 13:07:00,
2013-02-21 07:12:00,21.1,11.2,30.20,East,83,9.2,13.8,65,0.00,OVC,SKC,0.00,WeatherDisplay:10.37,2013-02-21 13:12:00,
2013-02-21 07:17:00,21.1,11.2,30.19,East,91,6.5,11.5,65,0.00,OVC,SKC,0.00,WeatherDisplay:10.37,2013-02-21 13:17:00,
2013-02-21 07:22:00,21.0,11.1,30.19,ENE,72,9.7,15.0,65,0.00,OVC,SKC,0.00,WeatherDisplay:10.37,2013-02-21 13:22:00,
2013-02-21 07:27:00,21.0,11.4,30.18,NE,53,6.3,8.1,66,0.00,OVC,SKC,0.00,WeatherDisplay:10.37,2013-02-21 13:27:00,
2013-02-21 07:32:00,20.9,11.3,30.18,ENE,65,10.0,12.7,66,0.00,OVC,SKC,0.00,WeatherDisplay:10.37,2013-02-21 13:32:00,
2013-02-21 07:37:00,20.8,11.6,30.18,NE,53,7.2,11.5,67,0.00,OVC,SKC,0.00,WeatherDisplay:10.37,2013-02-21 13:37:00,
2013-02-21 07:42:00,20.7,11.5,30.18,East,82,9.5,12.7,67,0.00,OVC,SKC,0.00,WeatherDisplay:10.37,2013-02-21 13:42:00,
2013-02-21 07:47:00,20.7,11.5,30.18,ENE,77,8.1,12.7,67,0.00,OVC,SKC,0.00,WeatherDisplay:10.37,2013-02-21 13:47:00,
2013-02-21 07:52:00,20.7,11.5,30.17,East,84,5.9,11.5,67,0.00,OVC,SKC,0.00,WeatherDisplay:10.37,2013-02-21 13:52:00,
2013-02-21 07:57:00,20.7,11.5,30.18,ENE,75,7.3,19.6,67,0.00,OVC,SKC,0.00,WeatherDisplay:10.37,2013-02-21 13:57:00,
2013-02-21 08:02:00,20.6,11.7,30.18,ENE,78,8.9,15.0,68,0.00,OVC,SKC,0.00,WeatherDisplay:10.37,2013-02-21 14:02:00,
2013-02-21 08:07:00,20.6,11.7,30.18,East,89,7.9,11.5,68,0.00,OVC,SKC,0.00,WeatherDisplay:10.37,2013-02-21 14:07:00,
2013-02-21 08:12:00,20.6,11.7,30.17,East,98,9.2,12.7,68,0.00,OVC,SKC,0.00,WeatherDisplay:10.37,2013-02-21 14:12:00,
2013-02-21 08:17:00,20.7,11.8,30.18,NE,54,8.4,11.5,68,0.00,OVC,SKC,0.00,WeatherDisplay:10.37,2013-02-21 14:17:00,
2013-02-21 08:22:00,20.8,11.9,30.19,East,84,6.5,10.4,68,0.00,OVC,SKC,0.00,WeatherDisplay:10.37,2013-02-21 14:22:00,
2013-02-21 08:27:00,20.8,11.9,30.21,East,79,7.7,10.4,68,0.00,OVC,SKC,0.00,WeatherDisplay:10.37,2013-02-21 14:27:00,
2013-02-21 08:32:00,20.8,11.9,30.21,ENE,58,6.9,13.8,68,0.00,OVC,SKC,0.00,WeatherDisplay:10.37,2013-02-21 14:32:00,
2013-02-21 08:37:00,20.9,12.0,30.22,East,101,7.2,8.1,68,0.00,OVC,SKC,0.00,WeatherDisplay:10.37,2013-02-21 14:37:00,
2013-02-21 08:42:00,21.0,12.1,30.22,ENE,70,4.1,11.5,68,0.00,OVC,SKC,0.00,WeatherDisplay:10.37,2013-02-21 14:42:00,
2013-02-21 08:47:00,21.1,12.2,30.22,ESE,113,7.6,13.8,68,0.00,OVC,SKC,0.00,WeatherDisplay:10.37,2013-02-21 14:47:00,
2013-02-21 08:52:00,21.2,12.3,30.21,NE,38,5.5,5.5,68,0.00,OVC,SKC,0.00,WeatherDisplay:10.37,2013-02-21 14:52:00,
2013-02-21 08:57:00,21.2,12.3,30.21,East,94,6.0,11.5,68,0.00,OVC,SKC,0.00,WeatherDisplay:10.37,2013-02-21 14:57:00,
2013-02-21 09:02:00,21.3,12.4,30.19,East,90,5.9,8.1,68,0.00,OVC,SKC,0.00,WeatherDisplay:10.37,2013-02-21 15:02:00,
2013-02-21 09:07:00,21.3,12.4,30.19,East,88,6.9,10.4,68,0.00,OVC,SKC,0.00,WeatherDisplay:10.37,2013-02-21 15:07:00,
2013-02-21 09:12:00,21.4,12.5,30.19,NE,41,6.5,9.2,68,0.00,OVC,SKC,0.00,WeatherDisplay:10.37,2013-02-21 15:12:00,
2013-02-21 09:17:00,21.4,12.5,30.18,NNE,23,3.7,12.7,68,0.00,OVC,SKC,0.00,WeatherDisplay:10.37,2013-02-21 15:17:00,
2013-02-21 09:22:00,21.4,12.5,30.18,East,97,4.6,8.1,68,0.00,OVC,SKC,0.00,WeatherDisplay:10.37,2013-02-21 15:22:00,
2013-02-21 09:27:00,21.6,12.7,30.19,ENE,78,6.7,6.7,68,0.00,OVC,SKC,0.00,WeatherDisplay:10.37,2013-02-21 15:27:00,
2013-02-21 09:32:00,21.7,12.8,30.18,ENE,63,8.7,9.2,68,0.00,OVC,SKC,0.00,WeatherDisplay:10.37,2013-02-21 15:32:00,
2013-02-21 09:37:00,21.6,12.7,30.18,East,84,11.2,20.7,68,0.00,OVC,SKC,0.00,WeatherDisplay:10.37,2013-02-21 15:37:00,
2013-02-21 09:42:00,21.5,12.6,30.17,ENE,67,6.9,8.1,68,0.00,OVC,SKC,0.00,WeatherDisplay:10.37,2013-02-21 15:42:00,
2013-02-21 09:47:00,21.6,12.7,30.17,ENE,75,8.8,16.1,68,0.00,OVC,SKC,0.00,WeatherDisplay:10.37,2013-02-21 15:47:00,
2013-02-21 09:52:00,21.8,12.9,30.16,ENE,63,11.3,13.8,68,0.00,OVC,SKC,0.00,WeatherDisplay:10.37,2013-02-21 15:52:00,
2013-02-21 09:57:00,21.9,13.0,30.16,NE,40,6.5,9.2,68,0.00,OVC,SKC,0.00,WeatherDisplay:10.37,2013-02-21 15:57:00,
2013-02-21 10:02:00,22.0,13.0,30.15,ENE,70,8.9,12.7,68,0.00,OVC,SKC,0.00,WeatherDisplay:10.37,2013-02-21 16:02:00,
2013-02-21 10:07:00,22.1,12.8,30.15,ENE,77,5.8,9.2,67,0.00,OVC,SKC,0.00,WeatherDisplay:10.37,2013-02-21 16:07:00,
2013-02-21 10:12:00,22.3,13.0,30.14,NE,51,7.1,11.5,67,0.00,OVC,SKC,0.00,WeatherDisplay:10.37,2013-02-21 16:12:00,
2013-02-21 10:17:00,22.5,13.2,30.14,NE,53,6.2,12.7,67,0.00,OVC,SKC,0.00,WeatherDisplay:10.37,2013-02-21 16:17:00,
2013-02-21 10:22:00,22.4,12.8,30.14,NE,46,8.3,15.0,66,0.00,BKN,SKC,0.00,WeatherDisplay:10.37,2013-02-21 16:22:00,
2013-02-21 10:27:00,22.6,12.9,30.13,NE,52,8.4,13.8,66,0.00,BKN,SKC,0.00,WeatherDisplay:10.37,2013-02-21 16:27:00,
2013-02-21 10:32:00,23.0,13.3,30.13,NNE,17,9.6,15.0,66,0.00,BKN,SKC,0.00,WeatherDisplay:10.37,2013-02-21 16:32:00,
2013-02-21 10:37:00,22.9,12.9,30.13,East,87,9.5,14.0,65,0.00,BKN,SKC,0.00,WeatherDisplay:10.37,2013-02-21 16:37:00,
2013-02-21 10:42:00,22.8,12.8,30.12,ESE,112,8.4,11.5,65,0.00,BKN,SKC,0.00,WeatherDisplay:10.37,2013-02-21 16:42:00,
2013-02-21 10:47:00,23.1,13.1,30.12,NE,51,10.0,12.7,65,0.00,BKN,SKC,0.00,WeatherDisplay:10.37,2013-02-21 16:47:00,
2013-02-21 10:52:00,23.3,12.9,30.11,NNE,30,8.9,13.8,64,0.00,BKN,SKC,0.00,WeatherDisplay:10.37,2013-02-21 16:52:00,
2013-02-21 10:57:00,23.4,13.0,30.11,NE,38,14.6,19.6,64,0.00,BKN,SKC,0.00,WeatherDisplay:10.37,2013-02-21 16:57:00,
2013-02-21 11:02:00,23.4,12.6,30.11,North,356,12.6,16.1,63,0.00,OVC,SKC,0.00,WeatherDisplay:10.37,2013-02-21 17:02:00,
2013-02-21 11:07:00,23.5,12.7,30.11,NE,46,10.5,17.3,63,0.00,OVC,SKC,0.00,WeatherDisplay:10.37,2013-02-21 17:07:00,
2013-02-21 11:13:00,23.9,13.1,30.11,NE,37,9.0,12.7,63,0.00,OVC,SKC,0.00,WeatherDisplay:10.37,2013-02-21 17:13:00,
2013-02-21 11:18:00,24.0,12.9,30.11,East,94,7.2,12.0,62,0.00,OVC,SKC,0.00,WeatherDisplay:10.37,2013-02-21 17:18:00,
2013-02-21 11:23:00,24.0,12.9,30.11,NE,56,12.6,17.3,62,0.00,OVC,SKC,0.00,WeatherDisplay:10.37,2013-02-21 17:23:00,
2013-02-21 11:28:00,24.0,13.6,30.11,East,86,7.8,12.7,64,0.00,OVC,SKC,0.00,WeatherDisplay:10.37,2013-02-21 17:28:00,
2013-02-21 11:33:00,23.9,14.2,30.11,ENE,68,11.0,17.3,66,0.00,OVC,SKC,0.00,WeatherDisplay:10.37,2013-02-21 17:33:00,
2013-02-21 11:38:00,23.8,14.8,30.10,ENE,78,7.5,11.5,68,0.00,OVC,SKC,0.00,WeatherDisplay:10.37,2013-02-21 17:38:00,
2013-02-21 11:43:00,23.4,15.4,30.10,ENE,64,13.7,18.4,71,0.00,OVC,SKC,0.00,WeatherDisplay:10.37,2013-02-21 17:43:00,
2013-02-21 11:48:00,23.0,15.9,30.10,ENE,58,13.5,18.4,74,0.00,OVC,SKC,0.00,WeatherDisplay:10.37,2013-02-21 17:48:00,
2013-02-21 11:53:00,22.8,16.7,30.09,NE,55,9.9,15.0,77,0.00,OVC,SKC,0.00,WeatherDisplay:10.37,2013-02-21 17:53:00,
2013-02-21 11:58:00,22.5,17.0,30.08,ENE,61,8.6,11.5,79,0.00,OVC,SKC,0.00,WeatherDisplay:10.37,2013-02-21 17:58:00,
2013-02-21 12:03:00,22.4,17.2,30.08,ENE,58,6.9,16.1,80,0.00,-SN,SKC,0.00,WeatherDisplay:10.37,2013-02-21 18:03:00,
2013-02-21 12:08:00,22.4,17.7,30.08,East,101,9.5,14.0,82,0.00,-SN,SKC,0.00,WeatherDisplay:10.37,2013-02-21 18:08:00,
2013-02-21 12:13:00,22.0,17.6,30.07,NE,46,7.9,13.8,83,0.00,-SN,SKC,0.00,WeatherDisplay:10.37,2013-02-21 18:13:00,
2013-02-21 12:18:00,21.8,17.7,30.07,NE,48,7.5,16.1,84,0.00,-SN,SKC,0.00,WeatherDisplay:10.37,2013-02-21 18:18:00,
2013-02-21 12:23:00,21.7,17.9,30.06,NE,51,7.8,11.5,85,0.00,-SN,SKC,0.00,WeatherDisplay:10.37,2013-02-21 18:23:00,
2013-02-21 12:28:00,21.5,18.0,30.05,ENE,57,12.3,15.0,86,0.00,-SN,SKC,0.00,WeatherDisplay:10.37,2013-02-21 18:28:00,
2013-02-21 12:33:00,21.4,18.4,30.05,NE,34,12.7,19.6,88,0.00,-SN,SKC,0.00,WeatherDisplay:10.37,2013-02-21 18:33:00,
2013-02-21 12:38:00,21.3,18.3,30.04,NE,49,13.0,18.4,88,0.00,-SN,SKC,0.00,WeatherDisplay:10.37,2013-02-21 18:38:00,
2013-02-21 12:43:00,21.2,18.2,30.04,NE,48,12.8,16.1,88,0.00,-SN,SKC,0.00,WeatherDisplay:10.37,2013-02-21 18:43:00,
2013-02-21 12:48:00,21.2,18.5,30.04,ENE,62,8.9,13.8,89,0.00,-SN,SKC,0.00,WeatherDisplay:10.37,2013-02-21 18:48:00,
2013-02-21 12:53:00,21.2,18.5,30.05,NE,46,9.3,11.5,89,0.00,-SN,SKC,0.00,WeatherDisplay:10.37,2013-02-21 18:53:00,
2013-02-21 12:58:00,21.3,18.8,30.05,NE,56,8.2,11.5,90,0.00,-SN,SKC,0.00,WeatherDisplay:10.37,2013-02-21 18:58:00,
2013-02-21 13:03:00,21.4,18.9,30.05,East,80,5.4,10.4,90,0.00,-SN,SKC,0.00,WeatherDisplay:10.37,2013-02-21 19:03:00,
2013-02-21 13:08:00,21.4,18.9,30.05,NE,46,7.6,11.5,90,0.00,-SN,SKC,0.00,WeatherDisplay:10.37,2013-02-21 19:08:00,
2013-02-21 13:13:00,21.3,18.8,30.06,NE,44,8.1,11.5,90,0.00,-SN,SKC,0.00,WeatherDisplay:10.37,2013-02-21 19:13:00,
2013-02-21 13:18:00,21.1,18.6,30.06,NE,35,7.4,10.4,90,0.00,-SN,SKC,0.00,WeatherDisplay:10.37,2013-02-21 19:18:00,
2013-02-21 13:23:00,21.0,18.5,30.05,NE,41,7.5,16.1,90,0.00,-SN,SKC,0.00,WeatherDisplay:10.37,2013-02-21 19:23:00,
2013-02-21 13:28:00,21.0,18.8,30.05,NE,49,5.8,6.9,91,0.00,-SN,SKC,0.00,WeatherDisplay:10.37,2013-02-21 19:28:00,
2013-02-21 13:33:00,21.0,18.8,30.04,NE,36,6.6,9.2,91,0.00,-SN,SKC,0.00,WeatherDisplay:10.37,2013-02-21 19:33:00,
2013-02-21 13:38:00,21.1,18.9,30.03,NE,41,9.9,11.5,91,0.00,-SN,SKC,0.00,WeatherDisplay:10.37,2013-02-21 19:38:00,
2013-02-21 13:43:00,21.1,18.9,30.03,NE,39,5.6,10.4,91,0.00,-SN,SKC,0.00,WeatherDisplay:10.37,2013-02-21 19:43:00,
2013-02-21 13:48:00,21.2,19.2,30.03,NE,49,8.3,10.4,92,0.00,-SN,SKC,0.00,WeatherDisplay:10.37,2013-02-21 19:48:00,
2013-02-21 13:53:00,21.1,18.9,30.03,NE,48,11.0,17.3,91,0.00,-SN,SKC,0.00,WeatherDisplay:10.37,2013-02-21 19:53:00,
2013-02-21 13:58:00,21.2,19.0,30.03,ENE,58,9.8,15.0,91,0.00,-SN,SKC,0.00,WeatherDisplay:10.37,2013-02-21 19:58:00,
2013-02-21 14:03:00,21.3,19.3,30.02,NE,52,8.8,11.5,92,0.00,OVC,SKC,0.00,WeatherDisplay:10.37,2013-02-21 20:03:00,
2013-02-21 14:08:00,21.4,19.2,30.02,NNE,26,13.1,16.1,91,0.00,OVC,SKC,0.00,WeatherDisplay:10.37,2013-02-21 20:08:00,
2013-02-21 14:13:00,21.5,19.3,30.02,NE,51,7.8,10.4,91,0.00,OVC,SKC,0.00,WeatherDisplay:10.37,2013-02-21 20:13:00,
2013-02-21 14:18:00,21.6,19.4,30.01,NNE,25,8.2,12.7,91,0.00,OVC,SKC,0.00,WeatherDisplay:10.37,2013-02-21 20:18:00,
2013-02-21 14:23:00,21.6,19.4,30.01,NE,55,11.5,12.7,91,0.00,-SN,SKC,0.00,WeatherDisplay:10.37,2013-02-21 20:23:00,
2013-02-21 14:28:00,21.5,19.3,30.01,NE,41,10.0,16.1,91,0.00,-SN,SKC,0.00,WeatherDisplay:10.37,2013-02-21 20:28:00,
2013-02-21 14:33:00,21.7,19.7,30.01,North,359,10.5,16.1,92,0.00,-SN,SKC,0.00,WeatherDisplay:10.37,2013-02-21 20:33:00,
2013-02-21 14:38:00,21.6,19.4,30.00,NNE,26,10.2,12.7,91,0.00,-SN,SKC,0.00,WeatherDisplay:10.37,2013-02-21 20:38:00,
2013-02-21 14:43:00,21.6,19.4,30.00,NNE,22,11.2,15.0,91,0.00,OVC,SKC,0.00,WeatherDisplay:10.37,2013-02-21 20:43:00,
2013-02-21 14:48:00,21.6,19.6,30.00,North,1,9.3,13.8,92,0.00,OVC,SKC,0.00,WeatherDisplay:10.37,2013-02-21 20:48:00,
2013-02-21 14:53:00,21.5,19.5,30.00,NE,56,8.8,12.0,92,0.00,OVC,SKC,0.00,WeatherDisplay:10.37,2013-02-21 20:53:00,
2013-02-21 14:58:00,21.6,19.6,30.00,NNE,22,10.4,19.6,92,0.00,OVC,SKC,0.00,WeatherDisplay:10.37,2013-02-21 20:58:00,
2013-02-21 15:03:00,21.7,19.7,30.00,NE,55,6.9,10.4,92,0.00,-SN,SKC,0.00,WeatherDisplay:10.37,2013-02-21 21:03:00,
2013-02-21 15:09:00,21.6,19.6,30.00,NE,49,9.3,12.7,92,0.00,-SN,SKC,0.00,WeatherDisplay:10.37,2013-02-21 21:09:00,
2013-02-21 15:14:00,21.8,19.8,30.00,NE,38,6.0,11.5,92,0.00,-SN,SKC,0.00,WeatherDisplay:10.37,2013-02-21 21:14:00,
2013-02-21 15:19:00,21.9,19.9,30.00,NE,41,5.9,11.5,92,0.00,-SN,SKC,0.00,WeatherDisplay:10.37,2013-02-21 21:19:00,
2013-02-21 15:24:00,21.7,19.7,30.00,NE,41,8.5,12.7,92,0.00,-SN,SKC,0.00,WeatherDisplay:10.37,2013-02-21 21:24:00,
2013-02-21 15:29:00,21.6,19.6,30.00,NNE,25,11.0,17.3,92,0.00,-SN,SKC,0.00,WeatherDisplay:10.37,2013-02-21 21:29:00,
2013-02-21 15:34:00,21.6,19.6,30.00,ENE,64,6.4,10.4,92,0.00,-SN,SKC,0.00,WeatherDisplay:10.37,2013-02-21 21:34:00,
2013-02-21 15:39:00,21.5,19.5,30.00,NE,46,10.0,12.7,92,0.00,-SN,SKC,0.00,WeatherDisplay:10.37,2013-02-21 21:39:00,
2013-02-21 15:44:00,21.5,19.5,30.00,NNE,24,9.3,13.8,92,0.00,-SN,SKC,0.00,WeatherDisplay:10.37,2013-02-21 21:44:00,
2013-02-21 15:49:00,21.4,19.7,30.00,NE,36,7.8,13.8,93,0.00,-SN,SKC,0.00,WeatherDisplay:10.37,2013-02-21 21:49:00,
2013-02-21 15:54:00,21.2,19.2,29.99,NE,53,8.9,15.0,92,0.00,-SN,SKC,0.00,WeatherDisplay:10.37,2013-02-21 21:54:00,
2013-02-21 15:59:00,21.1,19.1,29.98,North,9,11.8,18.4,92,0.00,-SN,SKC,0.00,WeatherDisplay:10.37,2013-02-21 21:59:00,
2013-02-21 16:04:00,21.1,19.4,29.99,NE,39,9.5,11.5,93,0.00,OVC,SKC,0.00,WeatherDisplay:10.37,2013-02-21 22:04:00,
2013-02-21 16:09:00,21.1,19.4,29.99,North,351,11.0,13.0,93,0.00,OVC,SKC,0.00,WeatherDisplay:10.37,2013-02-21 22:09:00,
2013-02-21 16:14:00,20.9,18.9,29.99,NE,51,8.5,11.5,92,0.00,OVC,SKC,0.00,WeatherDisplay:10.37,2013-02-21 22:14:00,
2013-02-21 16:19:00,20.8,19.1,29.98,NE,41,10.7,13.8,93,0.00,OVC,SKC,0.00,WeatherDisplay:10.37,2013-02-21 22:19:00,
2013-02-21 16:24:00,20.8,19.1,29.98,NE,53,7.8,10.4,93,0.00,-SN,SKC,0.00,WeatherDisplay:10.37,2013-02-21 22:24:00,
2013-02-21 16:29:00,20.9,19.2,29.98,North,11,6.7,11.5,93,0.00,-SN,SKC,0.00,WeatherDisplay:10.37,2013-02-21 22:29:00,
2013-02-21 16:34:00,20.9,19.2,29.98,North,352,10.5,13.8,93,0.00,-SN,SKC,0.00,WeatherDisplay:10.37,2013-02-21 22:34:00,
2013-02-21 16:39:00,20.8,19.1,29.98,NE,44,7.4,13.8,93,0.00,-SN,SKC,0.00,WeatherDisplay:10.37,2013-02-21 22:39:00,
2013-02-21 16:44:00,20.8,19.1,29.97,North,4,8.7,11.5,93,0.00,-SN,SKC,0.00,WeatherDisplay:10.37,2013-02-21 22:44:00,
2013-02-21 16:49:00,20.8,19.1,29.97,NE,36,6.4,9.2,93,0.00,-SN,SKC,0.00,WeatherDisplay:10.37,2013-02-21 22:49:00,
2013-02-21 16:54:00,20.7,19.0,29.97,NE,37,7.7,15.0,93,0.00,-SN,SKC,0.00,WeatherDisplay:10.37,2013-02-21 22:54:00,
2013-02-21 16:59:00,20.7,19.0,29.97,ENE,64,8.6,14.0,93,0.00,-SN,SKC,0.00,WeatherDisplay:10.37,2013-02-21 22:59:00,
2013-02-21 17:04:00,20.7,19.0,29.97,NNE,16,6.1,9.2,93,0.00,OVC,SKC,0.00,WeatherDisplay:10.37,2013-02-21 23:04:00,
2013-02-21 17:09:00,20.6,18.9,29.96,NE,39,8.9,16.1,93,0.00,OVC,SKC,0.00,WeatherDisplay:10.37,2013-02-21 23:09:00,
2013-02-21 17:14:00,20.6,18.9,29.96,NNE,12,6.9,11.5,93,0.00,OVC,SKC,0.00,WeatherDisplay:10.37,2013-02-21 23:14:00,
2013-02-21 17:19:00,20.6,18.9,29.96,NNE,24,8.5,17.3,93,0.00,OVC,SKC,0.00,WeatherDisplay:10.37,2013-02-21 23:19:00,
2013-02-21 17:24:00,20.6,18.9,29.96,NE,50,4.9,9.2,93,0.00,-SN,SKC,0.00,WeatherDisplay:10.37,2013-02-21 23:24:00,
2013-02-21 17:29:00,20.6,18.9,29.96,NNE,23,10.7,12.7,93,0.00,-SN,SKC,0.00,WeatherDisplay:10.37,2013-02-21 23:29:00,
2013-02-21 17:34:00,20.5,18.8,29.96,NE,42,10.0,11.5,93,0.00,-SN,SKC,0.00,WeatherDisplay:10.37,2013-02-21 23:34:00,
2013-02-21 17:39:00,20.5,18.8,29.96,NNE,12,10.1,13.8,93,0.00,-SN,SKC,0.00,WeatherDisplay:10.37,2013-02-21 23:39:00,
2013-02-21 17:44:00,20.5,18.8,29.96,NE,40,9.4,11.5,93,0.00,-SN,SKC,0.00,WeatherDisplay:10.37,2013-02-21 23:44:00,
2013-02-21 17:49:00,20.5,18.8,29.96,NE,46,6.2,15.0,93,0.00,-SN,SKC,0.00,WeatherDisplay:10.37,2013-02-21 23:49:00,
2013-02-21 17:54:00,20.5,18.8,29.96,North,352,8.2,12.7,93,0.00,-SN,SKC,0.00,WeatherDisplay:10.37,2013-02-21 23:54:00,
2013-02-21 17:59:00,20.5,18.8,29.95,NNE,15,11.1,16.1,93,0.00,-SN,SKC,0.00,WeatherDisplay:10.37,2013-02-21 23:59:00,
2013-02-21 18:04:00,20.5,18.8,29.95,NNE,19,12.5,17.3,93,0.00,-SN,SKC,0.00,WeatherDisplay:10.37,2013-02-22 00:04:00,
2013-02-21 18:09:00,20.5,18.8,29.95,NE,51,6.5,9.2,93,0.00,-SN,SKC,0.00,WeatherDisplay:10.37,2013-02-22 00:09:00,
2013-02-21 18:14:00,20.5,18.8,29.95,NNW,332,7.4,13.8,93,0.00,-SN,SKC,0.00,WeatherDisplay:10.37,2013-02-22 00:14:00,
2013-02-21 18:19:00,20.5,18.8,29.95,NNE,13,7.3,10.4,93,0.00,-SN,SKC,0.00,WeatherDisplay:10.37,2013-02-22 00:19:00,
2013-02-21 18:24:00,20.5,18.8,29.95,ENE,75,7.7,12.7,93,0.00,-SN,SKC,0.00,WeatherDisplay:10.37,2013-02-22 00:24:00,
2013-02-21 18:29:00,20.5,18.8,29.95,NE,34,7.8,10.0,93,0.00,-SN,SKC,0.00,WeatherDisplay:10.37,2013-02-22 00:29:00,
2013-02-21 18:34:00,20.6,18.9,29.95,NE,39,6.6,10.4,93,0.00,-SN,SKC,0.00,WeatherDisplay:10.37,2013-02-22 00:34:00,
2013-02-21 18:39:00,20.6,18.9,29.95,NE,41,7.6,11.5,93,0.00,-SN,SKC,0.00,WeatherDisplay:10.37,2013-02-22 00:39:00,
2013-02-21 18:44:00,20.7,19.0,29.95,NNE,16,10.8,17.3,93,0.00,-SN,SKC,0.00,WeatherDisplay:10.37,2013-02-22 00:44:00,
2013-02-21 18:49:00,20.8,19.1,29.95,NE,50,7.4,11.5,93,0.00,-SN,SKC,0.00,WeatherDisplay:10.37,2013-02-22 00:49:00,
2013-02-21 18:54:00,20.9,19.2,29.95,NE,52,8.2,11.5,93,0.00,-SN,SKC,0.00,WeatherDisplay:10.37,2013-02-22 00:54:00,
2013-02-21 18:59:00,21.0,19.3,29.95,North,9,9.8,11.5,93,0.00,-SN,SKC,0.00,WeatherDisplay:10.37,2013-02-22 00:59:00,
2013-02-21 19:04:00,21.0,19.3,29.94,NE,44,8.5,13.8,93,0.00,-SN,SKC,0.00,WeatherDisplay:10.37,2013-02-22 01:04:00,
2013-02-21 19:09:00,21.1,19.4,29.94,NE,47,8.2,11.5,93,0.00,-SN,SKC,0.00,WeatherDisplay:10.37,2013-02-22 01:09:00,
2013-02-21 19:14:00,21.2,19.5,29.94,NNE,27,6.6,11.5,93,0.00,-SN,SKC,0.00,WeatherDisplay:10.37,2013-02-22 01:14:00,
2013-02-21 19:19:00,21.2,19.5,29.94,NE,41,8.9,11.5,93,0.00,-SN,SKC,0.00,WeatherDisplay:10.37,2013-02-22 01:19:00,
2013-02-21 19:24:00,21.2,19.5,29.95,NE,51,6.1,12.0,93,0.00,-SN,SKC,0.00,WeatherDisplay:10.37,2013-02-22 01:24:00,
2013-02-21 19:29:00,21.3,19.6,29.95,NE,52,7.1,10.4,93,0.00,-SN,SKC,0.00,WeatherDisplay:10.37,2013-02-22 01:29:00,
2013-02-21 19:34:00,21.3,19.6,29.95,NE,38,5.0,8.1,93,0.00,-SN,SKC,0.00,WeatherDisplay:10.37,2013-02-22 01:34:00,
2013-02-21 19:39:00,21.4,19.7,29.94,NE,35,6.1,10.4,93,0.00,-SN,SKC,0.00,WeatherDisplay:10.37,2013-02-22 01:39:00,
2013-02-21 19:44:00,21.4,19.7,29.94,NE,41,7.7,11.5,93,0.00,-SN,SKC,0.00,WeatherDisplay:10.37,2013-02-22 01:44:00,
2013-02-21 19:49:00,21.5,19.8,29.94,NE,42,10.3,13.8,93,0.00,-SN,SKC,0.00,WeatherDisplay:10.37,2013-02-22 01:49:00,
2013-02-21 19:54:00,21.5,19.8,29.94,NNE,22,7.0,8.1,93,0.00,-SN,SKC,0.00,WeatherDisplay:10.37,2013-02-22 01:54:00,
2013-02-21 19:59:00,21.6,19.9,29.94,NE,34,6.5,10.4,93,0.00,-SN,SKC,0.00,WeatherDisplay:10.37,2013-02-22 01:59:00,
2013-02-21 20:04:00,21.7,20.0,29.94,NE,37,7.9,12.7,93,0.00,-SN,SKC,0.00,WeatherDisplay:10.37,2013-02-22 02:04:00,
2013-02-21 20:09:00,21.7,20.0,29.93,NNE,25,7.0,11.5,93,0.00,-SN,SKC,0.00,WeatherDisplay:10.37,2013-02-22 02:09:00,
2013-02-21 20:14:00,21.7,20.0,29.93,North,349,4.7,5.8,93,0.00,-SN,SKC,0.00,WeatherDisplay:10.37,2013-02-22 02:14:00,
2013-02-21 20:19:00,21.7,20.0,29.94,NE,44,6.7,11.5,93,0.00,-SN,SKC,0.00,WeatherDisplay:10.37,2013-02-22 02:19:00,
2013-02-21 20:25:00,21.7,20.0,29.94,NE,46,5.7,8.1,93,0.00,-SN,SKC,0.00,WeatherDisplay:10.37,2013-02-22 02:25:00,
2013-02-21 20:30:00,21.7,20.0,29.94,NE,35,3.9,5.8,93,0.00,-SN,SKC,0.00,WeatherDisplay:10.37,2013-02-22 02:30:00,
2013-02-21 20:35:00,21.7,20.0,29.93,NE,41,7.8,12.7,93,0.00,-SN,SKC,0.00,WeatherDisplay:10.37,2013-02-22 02:35:00,
2013-02-21 20:40:00,21.7,20.0,29.93,NE,34,7.3,9.2,93,0.00,-SN,SKC,0.00,WeatherDisplay:10.37,2013-02-22 02:40:00,
2013-02-21 20:45:00,21.7,20.0,29.93,NE,44,7.2,9.2,93,0.00,-SN,SKC,0.00,WeatherDisplay:10.37,2013-02-22 02:45:00,
2013-02-21 20:50:00,21.7,20.0,29.93,East,79,6.8,8.1,93,0.00,-SN,SKC,0.00,WeatherDisplay:10.37,2013-02-22 02:50:00,
2013-02-21 20:55:00,21.7,20.2,29.93,NNE,22,5.8,9.2,94,0.00,-SN,SKC,0.00,WeatherDisplay:10.37,2013-02-22 02:55:00,
2013-02-21 21:00:00,21.8,20.3,29.93,North,356,6.3,9.2,94,0.00,-SN,SKC,0.00,WeatherDisplay:10.37,2013-02-22 03:00:00,
2013-02-21 21:05:00,21.8,20.3,29.93,North,359,4.8,5.8,94,0.00,-SN,SKC,0.00,WeatherDisplay:10.37,2013-02-22 03:05:00,
2013-02-21 21:10:00,21.8,20.3,29.93,NE,43,5.1,9.2,94,0.00,-SN,SKC,0.00,WeatherDisplay:10.37,2013-02-22 03:10:00,
2013-02-21 21:15:00,21.8,20.3,29.92,NNE,23,3.6,6.9,94,0.00,-SN,SKC,0.00,WeatherDisplay:10.37,2013-02-22 03:15:00,
2013-02-21 21:20:00,21.8,20.3,29.92,NNE,18,5.4,6.9,94,0.00,-SN,SKC,0.00,WeatherDisplay:10.37,2013-02-22 03:20:00,
2013-02-21 21:25:00,21.9,20.4,29.92,NNE,20,6.2,6.9,94,0.00,OVC,SKC,0.00,WeatherDisplay:10.37,2013-02-22 03:25:00,
2013-02-21 21:30:00,21.9,20.4,29.92,NNE,19,5.4,7.0,94,0.00,OVC,SKC,0.00,WeatherDisplay:10.37,2013-02-22 03:30:00,
2013-02-21 21:35:00,22.0,20.5,29.92,NNE,32,4.7,11.5,94,0.00,OVC,SKC,0.00,WeatherDisplay:10.37,2013-02-22 03:35:00,
2013-02-21 21:40:00,22.0,20.5,29.92,NE,39,4.5,6.0,94,0.00,OVC,SKC,0.00,WeatherDisplay:10.37,2013-02-22 03:40:00,
2013-02-21 21:45:00,22.0,20.5,29.92,North,351,5.2,10.4,94,0.00,-SN,SKC,0.00,WeatherDisplay:10.37,2013-02-22 03:45:00,
2013-02-21 21:50:00,22.1,20.6,29.92,NNE,24,9.1,11.5,94,0.00,-SN,SKC,0.00,WeatherDisplay:10.37,2013-02-22 03:50:00,
2013-02-21 21:55:00,22.1,20.6,29.92,NNE,27,6.1,9.2,94,0.00,-SN,SKC,0.00,WeatherDisplay:10.37,2013-02-22 03:55:00,
2013-02-21 22:00:00,22.1,20.6,29.92,NNE,28,6.3,9.0,94,0.00,-SN,SKC,0.00,WeatherDisplay:10.37,2013-02-22 04:00:00,
2013-02-21 22:05:00,22.1,20.6,29.92,NNE,14,4.3,8.1,94,0.00,-SN,SKC,0.00,WeatherDisplay:10.37,2013-02-22 04:05:00,
2013-02-21 22:10:00,22.1,20.6,29.92,NNE,16,6.2,8.1,94,0.00,-SN,SKC,0.00,WeatherDisplay:10.37,2013-02-22 04:10:00,
2013-02-21 22:15:00,22.0,20.5,29.92,NE,51,9.6,11.5,94,0.00,-SN,SKC,0.00,WeatherDisplay:10.37,2013-02-22 04:15:00,
2013-02-21 22:20:00,22.0,20.5,29.92,North,9,9.4,15.0,94,0.00,-SN,SKC,0.00,WeatherDisplay:10.37,2013-02-22 04:20:00,
2013-02-21 22:25:00,21.9,20.4,29.92,North,8,7.0,11.5,94,0.00,-SN,SKC,0.00,WeatherDisplay:10.37,2013-02-22 04:25:00,
2013-02-21 22:30:00,21.8,20.3,29.92,NNE,29,9.0,12.0,94,0.00,-SN,SKC,0.00,WeatherDisplay:10.37,2013-02-22 04:30:00,
2013-02-21 22:35:00,21.7,20.2,29.92,NNE,15,5.4,6.9,94,0.00,-SN,SKC,0.00,WeatherDisplay:10.37,2013-02-22 04:35:00,
2013-02-21 22:40:00,21.6,20.1,29.91,North,8,8.7,11.5,94,0.00,-SN,SKC,0.00,WeatherDisplay:10.37,2013-02-22 04:40:00,
2013-02-21 22:45:00,21.6,19.9,29.91,NNE,29,9.3,13.0,93,0.00,-SN,SKC,0.00,WeatherDisplay:10.37,2013-02-22 04:45:00,
2013-02-21 22:50:00,21.5,19.8,29.91,NNE,15,8.9,11.5,93,0.00,-SN,SKC,0.00,WeatherDisplay:10.37,2013-02-22 04:50:00,
2013-02-21 22:55:00,21.4,19.7,29.91,ENE,58,8.5,15.0,93,0.00,-SN,SKC,0.00,WeatherDisplay:10.37,2013-02-22 04:55:00,
2013-02-21 23:00:00,21.3,19.6,29.91,NNE,22,10.9,16.1,93,0.00,-SN,SKC,0.00,WeatherDisplay:10.37,2013-02-22 05:00:00,
2013-02-21 23:05:00,21.2,19.5,29.91,NNE,27,9.1,13.8,93,0.00,-SN,SKC,0.00,WeatherDisplay:10.37,2013-02-22 05:05:00,
2013-02-21 23:10:00,21.2,19.5,29.91,NE,34,6.4,13.8,93,0.00,-SN,SKC,0.00,WeatherDisplay:10.37,2013-02-22 05:10:00,
2013-02-21 23:15:00,21.2,19.5,29.91,NNE,30,5.0,15.0,93,0.00,-SN,SKC,0.00,WeatherDisplay:10.37,2013-02-22 05:15:00,
2013-02-21 23:20:00,21.2,19.5,29.91,ENE,58,4.3,5.8,93,0.00,-SN,SKC,0.00,WeatherDisplay:10.37,2013-02-22 05:20:00,
2013-02-21 23:25:00,21.1,19.4,29.91,NNE,26,5.8,11.5,93,0.00,-SN,SKC,0.00,WeatherDisplay:10.37,2013-02-22 05:25:00,
2013-02-21 23:30:00,21.1,19.4,29.91,NNE,33,8.0,15.0,93,0.00,-SN,SKC,0.00,WeatherDisplay:10.37,2013-02-22 05:30:00,
2013-02-21 23:35:00,20.9,19.2,29.91,NNE,20,7.6,14.0,93,0.00,-SN,SKC,0.00,WeatherDisplay:10.37,2013-02-22 05:35:00,
2013-02-21 23:40:00,20.9,19.2,29.91,NNE,21,7.0,10.4,93,0.00,-SN,SKC,0.00,WeatherDisplay:10.37,2013-02-22 05:40:00,
2013-02-21 23:45:00,20.8,19.1,29.91,NNE,17,8.0,14.0,93,0.00,-SN,SKC,0.00,WeatherDisplay:10.37,2013-02-22 05:45:00,
2013-02-21 23:50:00,20.8,19.1,29.91,NE,44,6.1,8.1,93,0.00,-SN,SKC,0.00,WeatherDisplay:10.37,2013-02-22 05:50:00,
2013-02-21 23:55:00,20.8,19.1,29.91,North,352,2.6,6.9,93,0.00,-SN,SKC,0.00,WeatherDisplay:10.37,2013-02-22 05:55:00,